Tucson Davis Monthan, AZ

3:39 PM MST on March 27, 2017 (GMT -0700)
Davis-Monthan Air Force Base

Weather History for KDMA - April, 2013

Change the Weather History Date:

Monday, April 29, 2013

  Actual Average Record
Temperature  
Mean Temperature 76 °F -  
Max Temperature 93 °F 84 °F 102 °F (1992)
Min Temperature 58 °F 54 °F 36 °F (1970)
Cooling Degree Days 10    
Growing Degree Days 26 (Base 50)    
Moisture  
Dew Point 13 °F    
Average Humidity 9    
Maximum Humidity 16    
Minimum Humidity 4    
Precipitation  
Precipitation 0.00 in - - ()
Sea Level Pressure  
Sea Level Pressure 29.70 in    
Wind  
Wind Speed 6 mph (WNW)    
Max Wind Speed 13 mph    
Max Gust Speed -    
Visibility 10 miles    
Events      
Averages and records for this station are not official NWS values.
T = Trace of Precipitation, MM = Missing Value Source: NWS Daily Summary

Daily Weather History Graph

Daily Weather History Graph

Search for Another Location

Airport or City:

Trip Planner

Search our weather history database for the weather conditions in past years. The results will help you decide how hot, cold, wet, or windy it might be!

Date:

Astronomy

Apr. 29, 2013 Rise Set
Actual Time 5:38 AM MST 7:03 PM MST
Civil Twilight 5:13 AM MST 7:29 PM MST
Nautical Twilight 4:42 AM MST 8:00 PM MST
Astronomical Twilight 4:09 AM MST 8:32 PM MST
Moon 11:26 PM MST (4/29) 9:09 AM MST (4/29)
Length of Visible Light 14h 16m
Length of Day
13h 24m
Waning Gibbous, 79% of the Moon is Illuminated
Apr 29
Waning Gibbous
May 2
Last Quarter
May 9
New
May 17
First Quarter
May 24
Full

Hourly Weather History & Observations

Time (MST) Temp. Dew Point Humidity Pressure Visibility Wind Dir Wind Speed Gust Speed Precip Events Conditions
12:58 AM 66.0 °F 12.4 °F 12% 29.74 in 10.0 mi SSE 8.1 mph - N/A   Clear
1:58 AM 63.7 °F 12.2 °F 13% 29.74 in 10.0 mi East 2.3 mph - N/A   Clear
2:58 AM 62.6 °F 13.1 °F 15% 29.73 in 10.0 mi SE 4.6 mph - N/A   Clear
3:58 AM 60.4 °F 12.7 °F 15% 29.74 in 10.0 mi ESE 4.6 mph - N/A   Clear
4:58 AM 59.2 °F 11.8 °F 16% 29.75 in 10.0 mi SE 4.6 mph - N/A   Clear
5:58 AM 58.8 °F 12.9 °F 16% 29.76 in 10.0 mi SE 8.1 mph - N/A   Clear
6:58 AM 64.6 °F 12.9 °F 13% 29.78 in 10.0 mi SE 8.1 mph - N/A   Clear
7:58 AM 73.0 °F 13.6 °F 10% 29.77 in 10.0 mi SE 8.1 mph - N/A   Clear
8:58 AM 79.9 °F 10.9 °F 7% 29.75 in 10.0 mi Variable 3.5 mph - N/A   Clear
9:58 AM 83.3 °F 13.5 °F 7% 29.74 in 10.0 mi Calm Calm - N/A   Clear
10:58 AM 86.5 °F 12.4 °F 6% 29.73 in 10.0 mi NW 5.8 mph - N/A   Clear
11:58 AM 90.0 °F 14.9 °F 6% 29.72 in 10.0 mi West 8.1 mph - N/A   Clear
12:58 PM 91.8 °F 12.2 °F 5% 29.71 in 10.0 mi Variable 2.3 mph - N/A   Clear
1:58 PM 93.2 °F 8.1 °F 4% 29.68 in 10.0 mi West 10.4 mph - N/A   Clear
2:58 PM 93.2 °F 8.2 °F 4% 29.66 in 10.0 mi WNW 5.8 mph - N/A   Clear
3:58 PM 93.7 °F 8.6 °F 4% 29.63 in 10.0 mi Variable 1.2 mph - N/A   Clear
4:58 PM 93.9 °F 8.6 °F 4% 29.62 in 10.0 mi NNW 12.7 mph - N/A   Clear
5:58 PM 92.5 °F 10.6 °F 5% 29.61 in 10.0 mi North 12.7 mph - N/A   Clear
6:58 PM 89.1 °F 14.4 °F 6% 29.62 in 10.0 mi NNW 11.5 mph - N/A   Clear
7:58 PM 83.7 °F 13.8 °F 7% 29.62 in 10.0 mi NNW 5.8 mph - N/A   Clear
8:58 PM 80.2 °F 14.2 °F 8% 29.63 in 10.0 mi WNW 4.6 mph - N/A   Clear
9:58 PM 81.1 °F 17.6 °F 9% 29.65 in 10.0 mi West 9.2 mph - N/A   Clear
10:58 PM 79.2 °F 20.7 °F 11% 29.66 in 10.0 mi West 8.1 mph - N/A   Clear
11:58 PM 75.2 °F 19.6 °F 12% 29.68 in 10.0 mi East 6.9 mph - N/A   Clear